Vorticity
6 7 6 5 6 6 4 4 7 4 4 4 5 6 6 5 6 6 6 5 6 8
11 7 7 6 8 4 7 5 5 7 4 3 3 5 5 5 4 5 6 6 6 4
10 7 8 7 -6 15 13 8 6 6 5 5 5 6 6 5 5 4 4 5 5 5
20 11 10 6 4 -11 1 18 4 1 -0 7 3 4 7 7 7 6 5 4 4 6
5 13 7 22 6 4 7 4 7 1 -2 3 6 7 6 6 9 7 6 5 4 6
20 16 15 1 7 12 5 10 14 21 22 9 4 16 5 0 9 8 9 6 4 3
17 16 14 18 5 10 8 23 -11 -1 0 9 25 23 -6 26 5 15 10 -4 -0 14
6 20 13 13 18 16 12 1 5 21 25 -9 -9 35 -0 -5 8 -7 7 13 15 1
10 -10 -4 4 6 -1 4 8 13 -16 1 4 11 -4 -6 11 16 -18 15 17 -5 -10
28 16 6 17 10 17 16 13 17 7 25 -6 17 11 34 -6 -5 3 -0 -12 -15 11
6 40 6 3 0 6 -0 6 -2 17 -8 7 1 18 1 29 34 20 22 26 10 11
13 42 8 30 10 10 13 7 8 -1 18 20 5 7 11 4 0 4 1 3 4 -7
20 -10 32 36 47 8 15 29 11 9 28 4 0 0 8 12 14 6 -2 -2 14 13
27 30 15 -1 12 27 30 19 26 22 15 22 18 1 12 14 -0 5 2 10 13 12
Height
5590 5600 5606 5615 5623 5630 5637 5644 5650 5657 5662 5668 5674 5679 5684 5688 5693 5698 5702 5706 5711 5713
5577 5583 5593 5600 5609 5615 5623 5629 5636 5644 5650 5656 5663 5668 5673 5678 5683 5688 5693 5698 5702 5706
5560 5568 5577 5587 5597 5603 5611 5617 5622 5630 5638 5644 5650 5656 5662 5668 5673 5677 5682 5687 5692 5696
5544 5553 5563 5571 5580 5588 5596 5603 5610 5615 5623 5631 5637 5643 5650 5655 5661 5666 5671 5675 5679 5685
5528 5538 5548 5556 5565 5575 5586 5590 5596 5602 5608 5615 5624 5631 5636 5643 5649 5654 5659 5664 5668 5673
5512 5522 5532 5541 5551 5560 5570 5581 5583 5586 5595 5601 5610 5620 5625 5631 5636 5642 5647 5652 5657 5661
5494 5505 5516 5526 5535 5544 5557 5564 5570 5577 5581 5590 5594 5603 5610 5617 5623 5629 5634 5639 5645 5650
5477 5489 5501 5512 5520 5529 5539 5549 5556 5565 5568 5577 5582 5590 5598 5604 5610 5616 5622 5627 5632 5637
5462 5473 5484 5496 5505 5514 5523 5532 5543 5550 5556 5562 5569 5576 5583 5589 5596 5601 5607 5614 5618 5623
5447 5457 5468 5478 5489 5498 5507 5516 5525 5534 5540 5547 5553 5560 5568 5573 5578 5586 5593 5597 5603 5609
5433 5442 5452 5462 5471 5482 5490 5500 5508 5516 5525 5529 5536 5542 5550 5557 5564 5570 5576 5581 5588 5594
5423 5428 5437 5445 5455 5465 5474 5482 5490 5499 5506 5513 5520 5528 5534 5541 5548 5555 5561 5567 5572 5579
5414 5421 5425 5431 5438 5448 5457 5464 5472 5482 5489 5497 5506 5511 5518 5525 5532 5539 5547 5552 5557 5563
5404 5410 5416 5421 5426 5432 5440 5449 5457 5466 5473 5480 5487 5494 5502 5510 5517 5524 5531 5537 5543 5548